Location: Dub?jovice
(49.7023°N, 15.0515°E)
Time: 00:22:48
(UTC+00:00)

Daily predictions for brighter satellites

Satellite Brightness Start Highest point End
(mag) Time Altitude Azimuth Time Altitude Azimuth Time Altitude Azimuth
SL-16 R/B 3.4 00:02:19 19° SSE 00:05:22 32° ESE 00:10:21 10° NE
SL-16 R/B 3.3 00:01:38 10° SE 00:07:35 51° ENE 00:13:36 10° N
Lacrosse 5 2.8 00:07:00 26° SSE 00:08:39 32° SE 00:13:10 10° ENE
USA 306 2.8 00:07:12 35° SW 00:08:48 70° SSE 00:12:58 10° ENE
Cosmos 1980 3.7 00:06:07 29° SSW 00:09:11 87° WNW 00:14:53 10° NNE
Cosmos 371 Rocket 3.4 00:06:52 30° SW 00:09:14 68° WNW 00:14:07 10° NNE
USA 307 2.8 00:11:14 35° SW 00:12:49 66° SSE 00:16:59 10° ENE
Cosmos 2333 Rocket 3.9 00:08:07 10° W 00:12:51 27° NW 00:17:38 10° NNE
Meteor 2-10 Rocket 3.7 00:08:02 10° NNW 00:13:44 74° W 00:16:52 26° S
Cosmos 1269 Rocket 4.0 00:10:43 10° NNW 00:16:03 84° ENE 00:20:15 16° SSE
Cosmos 1709 Rocket 4.1 00:10:00 10° NNW 00:16:03 62° W 00:19:32 26° SSW
Cosmos 304 Rocket 3.7 00:15:45 31° SSW 00:18:05 86° WNW 00:22:57 10° NNE
USA 267 4.0 00:17:02 25° SSW 00:19:19 31° SW 00:25:01 10° WNW
Cosmos 2084 Rocket 3.6 00:19:40 34° S 00:20:46 46° SE 00:24:25 10° NE
Cosmos 2315 Rocket 4.1 00:18:32 26° SSW 00:22:24 77° W 00:28:50 10° N
Cosmos 2184 Rocket 4.4 00:18:16 10° N 00:24:30 62° ENE 00:30:23 11° SSE
USA 229 4.5 00:19:52 10° NW 00:26:33 38° WSW 00:30:48 22° SSW
Meteor 1-24 Rocket 3.9 00:25:26 22° S 00:29:04 65° E 00:34:27 10° NNE
COSMOS 2455 4.1 00:25:36 16° SSE 00:29:27 30° ESE 00:34:35 10° NE
Cosmos 1455 2.9 00:27:33 10° N 00:31:11 49° ENE 00:33:50 17° SSE
Cosmos 2219 Rocket 4.0 00:27:24 10° W 00:31:56 25° NW 00:36:31 10° NNE
MOZ.5/SAFIR/RUBIN 5/SL-8 4.1 00:34:54 27° SSW 00:37:14 50° W 00:41:52 10° NNW
CZ-2D R/B 2.4 00:31:55 10° NNE 00:37:17 63° ESE 00:40:53 20° S
Cosmos 1271 Rocket 4.1 00:35:18 10° N 00:38:51 36° ENE 00:42:26 10° SE
Cosmos 1455 Rocket 3.4 00:35:55 10° NNW 00:40:16 52° W 00:42:28 27° SSW
Cosmos 1300 4.0 00:39:52 10° NW 00:42:58 24° W 00:43:56 22° WSW
USA 308 2.8 00:40:45 21° WSW 00:43:30 87° NNW 00:47:43 10° ENE
Cosmos 1536 Rocket 4.3 00:48:05 16° SSE 00:51:23 49° E 00:55:37 10° NNE
Meteor 2-5 Rocket 3.8 00:50:14 22° SSW 00:54:06 73° WNW 00:59:47 10° N
SAR-Lupe-2 4.2 00:52:26 10° NNE 00:55:57 49° E 00:58:15 19° S
CZ-4C R/B 4.4 00:51:52 10° WNW 00:56:46 18° WSW 00:59:24 16° SW
ERBS 2.5 00:55:13 22° WSW 00:56:57 57° NNW 00:59:59 10° NE
Cosmos 1975 Rocket 3.7 00:56:40 22° SW 00:59:08 44° WNW 01:03:26 10° N
Nadezhda 1 Rocket 4.4 00:55:14 13° S 01:00:56 65° E 01:07:09 10° NNE
Cosmos 2237 Rocket 3.0 00:56:44 15° WSW 01:01:06 43° NW 01:06:34 10° NNE
Cosmos 1025 Rocket 3.5 01:00:08 23° SW 01:02:35 49° WNW 01:06:46 10° N
Resurs 1-4 Rocket 2.1 00:57:52 10° NNE 01:03:09 81° WNW 01:07:01 19° SSW
SME Rocket 4.1 01:03:28 22° SW 01:05:29 33° W 01:10:11 10° NNW
USA 305 3.2 01:02:25 11° W 01:06:21 64° NNW 01:10:31 10° ENE
USA-17 4.4 01:03:06 10° NW 01:06:22 83° SW 01:10:32 10° SE
Gblst 52 Del rocket 4.3 01:02:47 10° WNW 01:08:40 78° N 01:14:10 10° E
CZ-4 R/B 3.8 01:05:18 10° N 01:09:57 68° WNW 01:13:13 19° SSW
YAOGAN 11 4.1 01:09:44 14° S 01:13:33 67° WSW 01:18:04 10° NNW
Cosmos 1943 Rocket 2.5 01:08:49 10° NW 01:14:13 46° WSW 01:19:24 11° S
IDEFIX/ARIANE 42P 2.9 01:10:56 10° NNE 01:16:12 63° ESE 01:21:05 12° S
Lacrosse 5 rocket 1.4 01:14:37 21° SSW 01:17:01 58° SE 01:21:03 10° ENE
ADEOS II 2.2 01:11:46 10° NNE 01:17:03 76° ESE 01:21:40 14° S
Cosmos 614 Rocket 4.0 01:14:06 10° NNW 01:19:16 65° WSW 01:24:25 10° S
UNK 3.9 01:15:35 14° S 01:19:21 56° W 01:23:56 10° NNW
Cosmos 2297 3.9 01:14:29 10° NW 01:20:04 52° WSW 01:25:36 10° S
USA 215 4.2 01:18:35 10° ENE 01:24:48 48° N 01:31:02 10° WNW
Cosmos 1544 Rocket 4.4 01:22:41 10° NNW 01:26:41 34° W 01:29:32 16° SSW
Cosmos 1703 3.4 01:24:41 13° S 01:28:07 74° E 01:32:03 10° NNE
IRS-1D 4.3 01:23:22 10° NNE 01:28:34 50° E 01:33:41 10° S
Cosmos 2341 Rocket 4.5 01:22:34 10° N 01:28:57 66° ENE 01:35:19 10° SSE
Cosmos 2278 Rocket 4.2 01:28:22 10° W 01:29:02 10° W 01:29:42 10° W
Helios 1A 3.0 01:25:34 10° S 01:29:46 71° WSW 01:34:01 10° NNW
Cosmos 2251 Rocket 3.5 01:25:00 10° NNW 01:30:17 83° WSW 01:35:35 10° SSE
Cosmos 2154 Rocket 4.1 01:24:43 10° NNW 01:31:00 64° W 01:37:12 10° S
EO 1 Del DPAF 3.0 01:29:49 10° NNE 01:33:21 85° ESE 01:36:19 14° SSW
MOS 1 Rocket 3.5 01:33:16 13° SSW 01:36:46 42° W 01:40:54 10° NNW
NPP 4.0 01:31:42 10° N 01:36:57 54° WNW 01:41:35 13° SW
Cosmos 2369 Rocket 2.2 01:37:54 10° NNW 01:43:28 66° WSW 01:48:59 10° SSE
MOS 1-B Rocket 4.3 01:39:58 10° SSE 01:45:30 65° ENE 01:51:20 10° N
Cosmos 1656 Rocket 3.5 01:41:28 10° NNW 01:46:53 75° WSW 01:52:17 10° SSE
USA 306 3.7 01:44:28 10° W 01:48:32 50° N 01:52:37 10° ENE
SL-16 R/B 2.7 01:44:11 12° SW 01:49:16 50° NW 01:54:50 10° NNE
CZ-2C R/B 4.3 01:45:24 10° NE 01:49:47 28° E 01:54:03 10° SSE
Meteor 1-28 Rocket 3.9 01:46:34 11° SSW 01:49:48 36° W 01:53:17 10° NNW
Cosmos 1892 Rocket 4.5 01:46:46 10° SSE 01:51:04 49° E 01:55:25 10° NNE
Cosmos 1726 Rocket 3.7 01:46:54 10° N 01:51:21 79° E 01:55:43 10° SSE
Lacrosse 5 2.1 01:46:15 10° WSW 01:51:22 71° NNW 01:56:28 10° NE
SL-16 R/B 3.3 01:45:53 10° SSW 01:51:24 34° W 01:57:01 10° NNW
Meteor 1-21 Rocket 4.3 01:46:21 10° S 01:51:59 84° E 01:57:34 10° NNE
USA 307 3.6 01:48:29 10° W 01:52:35 51° N 01:56:41 10° ENE
Cosmos 1455 4.1 02:04:14 10° NW 02:06:15 14° W 02:08:15 10° WSW
Cosmos 1603 3.9 02:07:11 10° SSW 02:12:46 73° ESE 02:18:27 10° NNE
DNEPR-1 R/B 4.0 02:09:16 10° SSW 02:13:24 57° SE 02:18:04 10° NE
Cosmos 2228 3.9 02:09:55 10° NNW 02:13:51 33° W 02:17:44 10° SSW
Cosmos 407 Rocket 3.6 02:08:56 10° NNW 02:14:13 63° WSW 02:19:24 10° S
Cosmos 1271 Rocket 4.2 02:11:41 10° NW 02:14:33 20° W 02:17:25 10° SW
COSMOS 2455 3.1 02:09:03 10° SW 02:15:01 63° NW 02:21:02 10° NNE
Cosmos 2218 Rocket 4.1 02:09:48 10° N 02:16:04 84° W 02:22:22 10° S
CZ-2D R/B 3.6 02:12:39 10° N 02:16:53 24° WNW 02:21:06 10° WSW
Cosmos 1371 Rocket 4.5 02:15:45 10° S 02:20:49 60° ESE 02:25:56 10° NNE
ATLAS 2AS CENTAUR R/B 4.5 02:15:05 10° NW 02:21:52 37° NNE 02:28:12 10° E
Cosmos 1140 Rocket 3.7 02:17:17 10° NNW 02:22:23 52° WSW 02:27:26 10° S
